Year,Month,Day,Hour,Minute,Value (Times are PST for temperature in C)
2009,06,04,00,10,11.90
2009,06,04,00,11,11.90
2009,06,04,00,12,11.90
2009,06,04,00,13,11.90
2009,06,04,00,14,11.90
2009,06,04,00,15,11.90
2009,06,04,00,16,11.90
2009,06,04,00,17,11.90
2009,06,04,00,18,11.90
2009,06,04,00,19,11.90
2009,06,04,00,20,11.90
2009,06,04,00,21,11.90
2009,06,04,00,22,11.90
2009,06,04,00,23,11.90
2009,06,04,00,24,11.90
2009,06,04,00,25,11.80
2009,06,04,00,26,11.80
2009,06,04,00,27,11.80
2009,06,04,00,28,11.80
2009,06,04,00,29,11.80
2009,06,04,00,30,11.80
2009,06,04,00,31,11.80
2009,06,04,00,32,11.80
2009,06,04,00,33,11.80
2009,06,04,00,34,11.80
2009,06,04,00,35,11.80
2009,06,04,00,36,11.80
2009,06,04,00,37,11.80
2009,06,04,00,38,11.80
2009,06,04,00,39,11.80
2009,06,04,00,40,12.20
2009,06,04,00,41,12.20
2009,06,04,00,42,12.20
2009,06,04,00,43,12.20
2009,06,04,00,44,12.20
2009,06,04,00,45,12.20
2009,06,04,00,46,12.20
2009,06,04,00,47,12.20
2009,06,04,00,48,12.20
2009,06,04,00,49,12.20
2009,06,04,00,50,12.20
2009,06,04,00,51,12.20
2009,06,04,00,52,12.20
2009,06,04,00,53,12.20
2009,06,04,00,54,12.20
2009,06,04,00,55,12.20
2009,06,04,00,56,12.20
2009,06,04,00,57,12.20
2009,06,04,00,58,12.20
2009,06,04,00,59,12.20
2009,06,04,01,00,12.20
2009,06,04,01,01,12.20
2009,06,04,01,02,12.20
2009,06,04,01,03,12.20
2009,06,04,01,04,12.20
2009,06,04,01,05,12.20
2009,06,04,01,06,12.20
2009,06,04,01,07,12.20
2009,06,04,01,08,12.20
2009,06,04,01,10,13.30
2009,06,04,01,11,13.30
2009,06,04,01,12,13.30
2009,06,04,01,13,13.30
2009,06,04,01,14,13.30
2009,06,04,01,15,13.30
2009,06,04,01,16,13.30
2009,06,04,01,17,13.30
2009,06,04,01,18,13.30
2009,06,04,01,19,13.30
2009,06,04,01,20,13.30
2009,06,04,01,21,13.30
2009,06,04,01,22,13.30
2009,06,04,01,23,13.30
2009,06,04,01,24,13.30
2009,06,04,01,25,12.40
2009,06,04,01,26,12.40
2009,06,04,01,27,12.40
2009,06,04,01,28,12.40
2009,06,04,01,29,12.40
2009,06,04,01,30,12.40
2009,06,04,01,31,12.40
2009,06,04,01,32,12.40
2009,06,04,01,33,12.40
2009,06,04,01,34,12.40
2009,06,04,01,35,12.40
2009,06,04,01,36,12.40
2009,06,04,01,37,12.40
2009,06,04,01,38,12.40
2009,06,04,01,39,12.40
2009,06,04,01,40,11.90
2009,06,04,01,41,11.90
2009,06,04,01,42,11.90
2009,06,04,01,43,11.90
2009,06,04,01,44,11.90
2009,06,04,01,45,11.90
2009,06,04,01,46,11.90
2009,06,04,01,47,11.90
2009,06,04,01,48,11.90
2009,06,04,01,49,11.90
2009,06,04,01,50,11.90
2009,06,04,01,51,11.90
2009,06,04,01,52,11.90
2009,06,04,01,53,11.90
2009,06,04,01,54,11.90
2009,06,04,01,55,12.20
2009,06,04,01,56,12.20
2009,06,04,01,57,12.20
2009,06,04,01,58,12.20
2009,06,04,01,59,12.20
2009,06,04,02,00,12.20
2009,06,04,02,01,12.20
2009,06,04,02,02,12.20
2009,06,04,02,03,12.20
2009,06,04,02,04,12.20
2009,06,04,02,05,12.20
2009,06,04,02,06,12.20
2009,06,04,02,07,12.20
2009,06,04,02,08,12.20
2009,06,04,02,09,12.20
2009,06,04,02,10,12.30
2009,06,04,02,11,12.30
2009,06,04,02,12,12.30
2009,06,04,02,13,12.30
2009,06,04,02,14,12.30
2009,06,04,02,15,12.30
2009,06,04,02,16,12.30
2009,06,04,02,17,12.30
2009,06,04,02,18,12.30
2009,06,04,02,19,12.30
2009,06,04,02,20,12.30
2009,06,04,02,21,12.30
2009,06,04,02,22,12.30
2009,06,04,02,23,12.30
2009,06,04,02,24,12.30
2009,06,04,02,25,12.80
2009,06,04,02,26,12.80
2009,06,04,02,27,12.80
2009,06,04,02,28,12.80
2009,06,04,02,29,12.80
2009,06,04,02,30,12.80
2009,06,04,02,31,12.80
2009,06,04,02,32,12.80
2009,06,04,02,33,12.80
2009,06,04,02,34,12.80
2009,06,04,02,35,12.80
2009,06,04,02,36,12.80
2009,06,04,02,37,12.80
2009,06,04,02,38,12.80
2009,06,04,02,39,12.80
2009,06,04,02,40,14.10
2009,06,04,02,41,14.10
2009,06,04,02,42,14.10
2009,06,04,02,43,14.10
2009,06,04,02,44,14.10
2009,06,04,02,45,14.10
2009,06,04,02,46,14.10
2009,06,04,02,47,14.10
2009,06,04,02,48,14.10
2009,06,04,02,49,14.10
2009,06,04,02,50,14.10
2009,06,04,02,51,14.10
2009,06,04,02,52,14.10
2009,06,04,02,53,14.10
2009,06,04,02,54,14.10
2009,06,04,02,55,13.50
2009,06,04,02,56,13.50
2009,06,04,02,57,13.50
2009,06,04,02,58,13.50
2009,06,04,02,59,13.50
2009,06,04,03,00,13.50
2009,06,04,03,01,13.50
2009,06,04,03,02,13.50
2009,06,04,03,03,13.50
2009,06,04,03,04,13.50
2009,06,04,03,05,13.50
2009,06,04,03,06,13.50
2009,06,04,03,07,13.50
2009,06,04,03,08,13.50
2009,06,04,03,09,13.50
2009,06,04,03,10,12.50
2009,06,04,03,11,12.50
2009,06,04,03,12,12.50
2009,06,04,03,13,12.50
2009,06,04,03,14,12.50
2009,06,04,03,15,12.50
2009,06,04,03,16,12.50
2009,06,04,03,17,12.50
2009,06,04,03,18,12.50
2009,06,04,03,19,12.50
2009,06,04,03,20,12.50
2009,06,04,03,21,12.50
2009,06,04,03,22,12.50
2009,06,04,03,23,12.50
2009,06,04,03,24,12.50
2009,06,04,03,25,12.60
2009,06,04,03,26,12.60
2009,06,04,03,27,12.60
2009,06,04,03,28,12.60
2009,06,04,03,29,12.60
2009,06,04,03,30,12.60
2009,06,04,03,31,12.60
2009,06,04,03,32,12.60
2009,06,04,03,33,12.60
2009,06,04,03,34,12.60
2009,06,04,03,35,12.60
2009,06,04,03,36,12.60
2009,06,04,03,37,12.60
2009,06,04,03,38,12.60
2009,06,04,03,39,12.60
2009,06,04,03,40,12.60
2009,06,04,03,41,12.60
2009,06,04,03,42,12.60
2009,06,04,03,43,12.60
2009,06,04,03,44,12.60
2009,06,04,03,45,12.60
2009,06,04,03,46,12.60
2009,06,04,03,47,12.60
2009,06,04,03,48,12.60
2009,06,04,03,49,12.60
2009,06,04,03,50,12.60
2009,06,04,03,51,12.60
2009,06,04,03,52,12.60
2009,06,04,03,53,12.60
2009,06,04,03,54,12.60
2009,06,04,03,55,12.30
2009,06,04,03,56,12.30
2009,06,04,03,57,12.30
2009,06,04,03,58,12.30
2009,06,04,03,59,12.30
2009,06,04,04,00,12.30
2009,06,04,04,01,12.30
2009,06,04,04,02,12.30
2009,06,04,04,03,12.30
2009,06,04,04,04,12.30
2009,06,04,04,05,12.30
2009,06,04,04,06,12.30
2009,06,04,04,07,12.30
2009,06,04,04,08,12.30
2009,06,04,04,09,12.30
2009,06,04,04,10,12.10
2009,06,04,04,11,12.10
2009,06,04,04,12,12.10
2009,06,04,04,13,12.10
2009,06,04,04,14,12.10
2009,06,04,04,15,12.10
2009,06,04,04,16,12.10
2009,06,04,04,17,12.10
2009,06,04,04,18,12.10
2009,06,04,04,19,12.10
2009,06,04,04,20,12.10
2009,06,04,04,21,12.10
2009,06,04,04,22,12.10
2009,06,04,04,23,12.10
2009,06,04,04,24,12.10
2009,06,04,04,25,11.90
2009,06,04,04,26,11.90
2009,06,04,04,27,11.90
2009,06,04,04,28,11.90
2009,06,04,04,29,11.90
2009,06,04,04,30,11.90
2009,06,04,04,31,11.90
2009,06,04,04,32,11.90
2009,06,04,04,33,11.90
2009,06,04,04,34,11.90
2009,06,04,04,35,11.90
2009,06,04,04,36,11.90
2009,06,04,04,37,11.90
2009,06,04,04,38,11.90
2009,06,04,04,39,11.90
2009,06,04,04,40,11.80
2009,06,04,04,41,11.80
2009,06,04,04,42,11.80
2009,06,04,04,43,11.80
2009,06,04,04,44,11.80
2009,06,04,04,45,11.80
2009,06,04,04,46,11.80
2009,06,04,04,47,11.80
2009,06,04,04,48,11.80
2009,06,04,04,49,11.80
2009,06,04,04,50,11.80
2009,06,04,04,51,11.80
2009,06,04,04,52,11.80
2009,06,04,04,53,11.80
2009,06,04,04,54,11.80
2009,06,04,04,55,11.60
2009,06,04,04,56,11.60
2009,06,04,04,57,11.60
2009,06,04,04,58,11.60
2009,06,04,05,00,11.60
2009,06,04,05,01,11.60
2009,06,04,05,03,11.60
2009,06,04,05,04,11.60
2009,06,04,05,05,11.60
2009,06,04,05,06,11.60
2009,06,04,05,07,11.60
2009,06,04,05,08,11.60
2009,06,04,05,09,11.60
2009,06,04,05,10,11.60
2009,06,04,05,11,11.60
2009,06,04,05,12,11.60
2009,06,04,05,13,11.60
2009,06,04,05,14,11.60
2009,06,04,05,15,11.60
2009,06,04,05,16,11.60
2009,06,04,05,17,11.60
2009,06,04,05,18,11.60
2009,06,04,05,19,11.60
2009,06,04,05,20,11.60
2009,06,04,05,21,11.60
2009,06,04,05,22,11.60
2009,06,04,05,23,11.60
2009,06,04,05,24,11.60
2009,06,04,05,25,11.70
2009,06,04,05,26,11.70
2009,06,04,05,27,11.70
2009,06,04,05,28,11.70
2009,06,04,05,29,11.70
2009,06,04,05,30,11.70
2009,06,04,05,31,11.70
2009,06,04,05,32,11.70
2009,06,04,05,33,11.70
2009,06,04,05,34,11.70
2009,06,04,05,35,11.70
2009,06,04,05,36,11.70
2009,06,04,05,37,11.70
2009,06,04,05,38,11.70
2009,06,04,05,39,11.70
2009,06,04,05,40,11.70
2009,06,04,05,41,11.70
2009,06,04,05,42,11.70
2009,06,04,05,43,11.70
2009,06,04,05,44,11.70
2009,06,04,05,45,11.70
2009,06,04,05,46,11.70
2009,06,04,05,47,11.70
2009,06,04,05,48,11.70
2009,06,04,05,49,11.70
2009,06,04,05,50,11.70
2009,06,04,05,51,11.70
2009,06,04,05,52,11.70
2009,06,04,05,53,11.70
2009,06,04,05,55,11.80
2009,06,04,05,56,11.80
2009,06,04,05,57,11.80
2009,06,04,05,58,11.80
2009,06,04,05,59,11.80
2009,06,04,06,00,11.80
2009,06,04,06,01,11.80
2009,06,04,06,02,11.80
2009,06,04,06,03,11.80
2009,06,04,06,04,11.80
2009,06,04,06,05,11.80
2009,06,04,06,06,11.80
2009,06,04,06,07,11.80
2009,06,04,06,08,11.80
2009,06,04,06,09,11.80
2009,06,04,06,10,12.20
2009,06,04,06,11,12.20
2009,06,04,06,12,12.20
2009,06,04,06,13,12.20
2009,06,04,06,14,12.20
2009,06,04,06,15,12.20
2009,06,04,06,16,12.20
2009,06,04,06,17,12.20
2009,06,04,06,18,12.20
2009,06,04,06,20,12.20
2009,06,04,06,21,12.20
2009,06,04,06,22,12.20
2009,06,04,06,23,12.20
2009,06,04,06,24,12.20
2009,06,04,06,25,12.60
2009,06,04,06,26,12.60
2009,06,04,06,27,12.60
2009,06,04,06,28,12.60
2009,06,04,06,29,12.60
2009,06,04,06,30,12.60
2009,06,04,06,31,12.60
2009,06,04,06,32,12.60
2009,06,04,06,33,12.60
2009,06,04,06,34,12.60
2009,06,04,06,35,12.60
2009,06,04,06,36,12.60
2009,06,04,06,37,12.60
2009,06,04,06,38,12.60
2009,06,04,06,39,12.60
2009,06,04,06,40,12.60
2009,06,04,06,41,12.60
2009,06,04,06,42,12.60
2009,06,04,06,43,12.60
2009,06,04,06,44,12.60
2009,06,04,06,45,12.60
2009,06,04,06,46,12.60
2009,06,04,06,47,12.60
2009,06,04,06,48,12.60
2009,06,04,06,49,12.60
2009,06,04,06,50,12.60
2009,06,04,06,51,12.60
2009,06,04,06,52,12.60
2009,06,04,06,53,12.60
2009,06,04,06,54,12.60
2009,06,04,06,55,13.10
2009,06,04,06,56,13.10
2009,06,04,06,57,13.10
2009,06,04,06,58,13.10
2009,06,04,06,59,13.10
2009,06,04,07,00,13.10
2009,06,04,07,01,13.10
2009,06,04,07,02,13.10
2009,06,04,07,03,13.10
2009,06,04,07,04,13.10
2009,06,04,07,05,13.10
2009,06,04,07,06,13.10
2009,06,04,07,07,13.10
2009,06,04,07,08,13.10
2009,06,04,07,09,13.10
2009,06,04,07,11,13.40
2009,06,04,07,12,13.40
2009,06,04,07,13,13.40
2009,06,04,07,14,13.40
2009,06,04,07,15,13.40
2009,06,04,07,16,13.40
2009,06,04,07,17,13.40
2009,06,04,07,18,13.40
2009,06,04,07,19,13.40
2009,06,04,07,20,13.40
2009,06,04,07,21,13.40
2009,06,04,07,22,13.40
2009,06,04,07,23,13.40
2009,06,04,07,24,13.40
2009,06,04,07,25,13.90
2009,06,04,07,26,13.90
2009,06,04,07,27,13.90
2009,06,04,07,28,13.90
2009,06,04,07,29,13.90
2009,06,04,07,30,13.90
2009,06,04,07,31,13.90
2009,06,04,07,32,13.90
2009,06,04,07,33,13.90
2009,06,04,07,34,13.90
2009,06,04,07,35,13.90
2009,06,04,07,36,13.90
2009,06,04,07,37,13.90
2009,06,04,07,38,13.90
2009,06,04,07,39,13.90
2009,06,04,07,40,14.20
2009,06,04,07,41,14.20
2009,06,04,07,42,14.20
2009,06,04,07,43,14.20
2009,06,04,07,44,14.20
2009,06,04,07,45,14.20
2009,06,04,07,46,14.20
2009,06,04,07,47,14.20
2009,06,04,07,48,14.20
2009,06,04,07,49,14.20
2009,06,04,07,50,14.20
2009,06,04,07,51,14.20
2009,06,04,07,52,14.20
2009,06,04,07,53,14.20
2009,06,04,07,54,14.20
2009,06,04,07,55,14.80
2009,06,04,07,56,14.80
2009,06,04,07,57,14.80
2009,06,04,07,58,14.80
2009,06,04,07,59,14.80
2009,06,04,08,00,14.80
2009,06,04,08,01,14.80
2009,06,04,08,02,14.80
2009,06,04,08,03,14.80
2009,06,04,08,05,14.80
2009,06,04,08,06,14.80
2009,06,04,08,07,14.80
2009,06,04,08,08,14.80
2009,06,04,08,09,14.80
2009,06,04,08,10,15.70
2009,06,04,08,11,15.70
2009,06,04,08,12,15.70
2009,06,04,08,13,15.70
2009,06,04,08,14,15.70
2009,06,04,08,15,15.70
2009,06,04,08,16,15.70
2009,06,04,08,17,15.70
2009,06,04,08,18,15.70
2009,06,04,08,19,15.70
2009,06,04,08,20,15.70
2009,06,04,08,21,15.70
2009,06,04,08,22,15.70
2009,06,04,08,23,15.70
2009,06,04,08,24,15.70
2009,06,04,08,25,15.50
2009,06,04,08,26,15.50
2009,06,04,08,27,15.50
2009,06,04,08,28,15.50
2009,06,04,08,29,15.50
2009,06,04,08,30,15.50
2009,06,04,08,31,15.50
2009,06,04,08,32,15.50
2009,06,04,08,33,15.50
2009,06,04,08,34,15.50
2009,06,04,08,35,15.50
2009,06,04,08,36,15.50
2009,06,04,08,37,15.50
2009,06,04,08,38,15.50
2009,06,04,08,39,15.50
2009,06,04,08,40,15.00
2009,06,04,08,41,15.00
2009,06,04,08,42,15.00
2009,06,04,08,43,15.00
2009,06,04,08,44,15.00
2009,06,04,08,45,15.00
2009,06,04,08,46,15.00
2009,06,04,08,47,15.00
2009,06,04,08,48,15.00
2009,06,04,08,49,15.00
2009,06,04,08,50,15.00
2009,06,04,08,51,15.00
2009,06,04,08,52,15.00
2009,06,04,08,53,15.00
2009,06,04,08,54,15.00
2009,06,04,08,55,15.30
2009,06,04,08,56,15.30
2009,06,04,08,57,15.30
2009,06,04,08,58,15.30
2009,06,04,08,59,15.30
2009,06,04,09,00,15.30
2009,06,04,09,01,15.30
2009,06,04,09,02,15.30
2009,06,04,09,03,15.30
2009,06,04,09,04,15.30
2009,06,04,09,05,15.30
2009,06,04,09,06,15.30
2009,06,04,09,07,15.30
2009,06,04,09,09,15.30
2009,06,04,09,10,15.50
2009,06,04,09,11,15.50
2009,06,04,09,12,15.50
2009,06,04,09,13,15.50
2009,06,04,09,14,15.50
2009,06,04,09,15,15.50
2009,06,04,09,16,15.50
2009,06,04,09,17,15.50
2009,06,04,09,18,15.50
2009,06,04,09,19,15.50
2009,06,04,09,20,15.50
2009,06,04,09,21,15.50
2009,06,04,09,22,15.50
2009,06,04,09,23,15.50
2009,06,04,09,24,15.50
2009,06,04,09,25,15.30
2009,06,04,09,26,15.30
2009,06,04,09,27,15.30
2009,06,04,09,28,15.30
2009,06,04,09,29,15.30
2009,06,04,09,30,15.30
2009,06,04,09,31,15.30
2009,06,04,09,32,15.30
2009,06,04,09,33,15.30
2009,06,04,09,34,15.30
2009,06,04,09,35,15.30
2009,06,04,09,36,15.30
2009,06,04,09,37,15.30
2009,06,04,09,38,15.30
2009,06,04,09,39,15.30
2009,06,04,09,40,15.70
2009,06,04,09,41,15.70
2009,06,04,09,42,15.70
2009,06,04,09,43,15.70
2009,06,04,09,44,15.70
2009,06,04,09,45,15.70
2009,06,04,09,46,15.70
2009,06,04,09,47,15.70
2009,06,04,09,48,15.70
2009,06,04,09,49,15.70
2009,06,04,09,50,15.70
2009,06,04,09,51,15.70
2009,06,04,09,52,15.70
2009,06,04,09,53,15.70
2009,06,04,09,54,15.70
2009,06,04,09,55,17.00
2009,06,04,09,56,17.00
2009,06,04,09,57,17.00
2009,06,04,09,58,17.00
2009,06,04,09,59,17.00
2009,06,04,10,00,17.00
2009,06,04,10,01,17.00
2009,06,04,10,02,17.00
2009,06,04,10,03,17.00
2009,06,04,10,04,17.00
2009,06,04,10,05,17.00
2009,06,04,10,06,17.00
2009,06,04,10,07,17.00
2009,06,04,10,08,17.00
2009,06,04,10,09,17.00
2009,06,04,10,10,16.80
2009,06,04,10,11,16.80
2009,06,04,10,12,16.80
2009,06,04,10,13,16.80
2009,06,04,10,14,16.80
2009,06,04,10,15,16.80
2009,06,04,10,16,16.80
2009,06,04,10,17,16.80
2009,06,04,10,18,16.80
2009,06,04,10,19,16.80
2009,06,04,10,20,16.80
2009,06,04,10,21,16.80
2009,06,04,10,22,16.80
2009,06,04,10,23,16.80
2009,06,04,10,24,16.80
2009,06,04,10,25,17.20
2009,06,04,10,26,17.20
2009,06,04,10,27,17.20
2009,06,04,10,28,17.20
2009,06,04,10,29,17.20
2009,06,04,10,30,17.20
2009,06,04,10,31,17.20
2009,06,04,10,32,17.20
2009,06,04,10,33,17.20
2009,06,04,10,34,17.20
2009,06,04,10,35,17.20
2009,06,04,10,36,17.20
2009,06,04,10,37,17.20
2009,06,04,10,38,17.20
2009,06,04,10,39,17.20
2009,06,04,10,40,17.30
2009,06,04,10,41,17.30
2009,06,04,10,42,17.30
2009,06,04,10,43,17.30
2009,06,04,10,44,17.30
2009,06,04,10,45,17.30
2009,06,04,10,46,17.30
2009,06,04,10,47,17.30
2009,06,04,10,48,17.30
2009,06,04,10,49,17.30
2009,06,04,10,50,17.30
2009,06,04,10,51,17.30
2009,06,04,10,52,17.30
2009,06,04,10,53,17.30
2009,06,04,10,55,17.80
2009,06,04,10,56,17.80
2009,06,04,10,57,17.80
2009,06,04,10,58,17.80
2009,06,04,10,59,17.80
2009,06,04,11,00,17.80
2009,06,04,11,01,17.80
2009,06,04,11,02,17.80
2009,06,04,11,03,17.80
2009,06,04,11,04,17.80
2009,06,04,11,05,17.80
2009,06,04,11,06,17.80
2009,06,04,11,07,17.80
2009,06,04,11,08,17.80
2009,06,04,11,09,17.80
2009,06,04,11,10,17.60
2009,06,04,11,11,17.60
2009,06,04,11,12,17.60
2009,06,04,11,13,17.60
2009,06,04,11,14,17.60
2009,06,04,11,15,17.60
2009,06,04,11,16,17.60
2009,06,04,11,17,17.60
2009,06,04,11,18,17.60
2009,06,04,11,19,17.60
2009,06,04,11,20,17.60
2009,06,04,11,21,17.60
2009,06,04,11,22,17.60
2009,06,04,11,23,17.60
2009,06,04,11,24,17.60
2009,06,04,11,25,17.40
2009,06,04,11,26,17.40
2009,06,04,11,27,17.40
2009,06,04,11,28,17.40
2009,06,04,11,29,17.40
2009,06,04,11,30,17.40
2009,06,04,11,31,17.40
2009,06,04,11,33,17.40
2009,06,04,11,34,17.40
2009,06,04,11,35,17.40
2009,06,04,11,36,17.40
2009,06,04,11,37,17.40
2009,06,04,11,38,17.40
2009,06,04,11,39,17.40
2009,06,04,11,40,17.70
2009,06,04,11,41,17.70
2009,06,04,11,42,17.70
2009,06,04,11,43,17.70
2009,06,04,11,44,17.70
2009,06,04,11,45,17.70
2009,06,04,11,46,17.70
2009,06,04,11,47,17.70
2009,06,04,11,48,17.70
2009,06,04,11,49,17.70
2009,06,04,11,50,17.70
2009,06,04,11,51,17.70
2009,06,04,11,52,17.70
2009,06,04,11,53,17.70
2009,06,04,11,54,17.70
2009,06,04,11,55,17.20
2009,06,04,11,56,17.20
2009,06,04,11,57,17.20
2009,06,04,11,58,17.20
2009,06,04,11,59,17.20
2009,06,04,12,00,17.20
2009,06,04,12,01,17.20
2009,06,04,12,02,17.20
2009,06,04,12,03,17.20
2009,06,04,12,04,17.20
2009,06,04,12,05,17.20
2009,06,04,12,06,17.20
2009,06,04,12,07,17.20
2009,06,04,12,08,17.20
2009,06,04,12,09,17.20
2009,06,04,12,10,17.80
2009,06,04,12,11,17.80
2009,06,04,12,12,17.80
2009,06,04,12,13,17.80
2009,06,04,12,14,17.80
2009,06,04,12,15,17.80
2009,06,04,12,16,17.80
2009,06,04,12,17,17.80
2009,06,04,12,18,17.80
2009,06,04,12,19,17.80
2009,06,04,12,20,17.80
2009,06,04,12,22,17.80
2009,06,04,12,23,17.80
2009,06,04,12,24,17.80
2009,06,04,12,25,18.50
2009,06,04,12,26,18.50
2009,06,04,12,27,18.50
2009,06,04,12,28,18.50
2009,06,04,12,29,18.50
2009,06,04,12,30,18.50
2009,06,04,12,31,18.50
2009,06,04,12,32,18.50
2009,06,04,12,33,18.50
2009,06,04,12,34,18.50
2009,06,04,12,35,18.50
2009,06,04,12,36,18.50
2009,06,04,12,37,18.50
2009,06,04,12,38,18.50
2009,06,04,12,39,18.50
2009,06,04,12,40,17.40
2009,06,04,12,41,17.40
2009,06,04,12,42,17.40
2009,06,04,12,43,17.40
2009,06,04,12,44,17.40
2009,06,04,12,45,17.40
2009,06,04,12,46,17.40
2009,06,04,12,47,17.40
2009,06,04,12,48,17.40
2009,06,04,12,49,17.40
2009,06,04,12,50,17.40
2009,06,04,12,51,17.40
2009,06,04,12,52,17.40
2009,06,04,12,53,17.40
2009,06,04,12,54,17.40
2009,06,04,12,55,16.40
2009,06,04,12,56,16.40
2009,06,04,12,57,16.40
2009,06,04,12,58,16.40
2009,06,04,12,59,16.40
2009,06,04,13,00,16.40
2009,06,04,13,01,16.40
2009,06,04,13,02,16.40
2009,06,04,13,03,16.40
2009,06,04,13,04,16.40
2009,06,04,13,05,16.40
2009,06,04,13,06,16.40
2009,06,04,13,07,16.40
2009,06,04,13,08,16.40
2009,06,04,13,09,16.40
2009,06,04,13,10,16.80
2009,06,04,13,11,16.80
2009,06,04,13,13,16.80
2009,06,04,13,14,16.80
2009,06,04,13,15,16.80
2009,06,04,13,16,16.80
2009,06,04,13,17,16.80
2009,06,04,13,18,16.80
2009,06,04,13,19,16.80
2009,06,04,13,20,16.80
2009,06,04,13,21,16.80
2009,06,04,13,22,16.80
2009,06,04,13,23,16.80
2009,06,04,13,24,16.80
2009,06,04,13,25,17.50
2009,06,04,13,26,17.50
2009,06,04,13,27,17.50
2009,06,04,13,28,17.50
2009,06,04,13,29,17.50
2009,06,04,13,30,17.50
2009,06,04,13,31,17.50
2009,06,04,13,32,17.50
2009,06,04,13,33,17.50
2009,06,04,13,34,17.50
2009,06,04,13,35,17.50
2009,06,04,13,36,17.50
2009,06,04,13,37,17.50
2009,06,04,13,38,17.50
2009,06,04,13,39,17.50
2009,06,04,13,40,17.60
2009,06,04,13,41,17.60
2009,06,04,13,42,17.60
2009,06,04,13,43,17.60
2009,06,04,13,44,17.60
2009,06,04,13,45,17.60
2009,06,04,13,46,17.60
2009,06,04,13,47,17.60
2009,06,04,13,48,17.60
2009,06,04,13,49,17.60
2009,06,04,13,50,17.60
2009,06,04,13,51,17.60
2009,06,04,13,52,17.60
2009,06,04,13,53,17.60
2009,06,04,13,54,17.60
2009,06,04,13,55,18.10
2009,06,04,13,56,18.10
2009,06,04,13,57,18.10
2009,06,04,13,58,18.10
2009,06,04,13,59,18.10
2009,06,04,14,00,18.10
2009,06,04,14,01,18.10
2009,06,04,14,02,18.10
2009,06,04,14,03,18.10
2009,06,04,14,04,18.10
2009,06,04,14,05,18.10
2009,06,04,14,06,18.10
2009,06,04,14,07,18.10
2009,06,04,14,08,18.10
2009,06,04,14,09,18.10
2009,06,04,14,10,20.50
2009,06,04,14,11,20.50
2009,06,04,14,12,20.50
2009,06,04,14,13,20.50
2009,06,04,14,14,20.50
2009,06,04,14,15,20.50
2009,06,04,14,16,20.50
2009,06,04,14,17,20.50
2009,06,04,14,18,20.50
2009,06,04,14,19,20.50
2009,06,04,14,20,20.50
2009,06,04,14,21,20.50
2009,06,04,14,22,20.50
2009,06,04,14,23,20.50
2009,06,04,14,24,20.50
2009,06,04,14,25,21.20
2009,06,04,14,26,21.20
2009,06,04,14,27,21.20
2009,06,04,14,28,21.20
2009,06,04,14,29,21.20
2009,06,04,14,30,21.20
2009,06,04,14,31,21.20
2009,06,04,14,32,21.20
2009,06,04,14,33,21.20
2009,06,04,14,34,21.20
2009,06,04,14,35,21.20
2009,06,04,14,36,21.20
2009,06,04,14,37,21.20
2009,06,04,14,38,21.20
2009,06,04,14,39,21.20
2009,06,04,14,40,21.10
2009,06,04,14,41,21.10
2009,06,04,14,42,21.10
2009,06,04,14,43,21.10
2009,06,04,14,44,21.10
2009,06,04,14,45,21.10
2009,06,04,14,46,21.10
2009,06,04,14,47,21.10
2009,06,04,14,48,21.10
2009,06,04,14,49,21.10
2009,06,04,14,50,21.10
2009,06,04,14,51,21.10
2009,06,04,14,52,21.10
2009,06,04,14,53,21.10
2009,06,04,14,54,21.10
2009,06,04,14,55,21.20
2009,06,04,14,56,21.20
2009,06,04,14,57,21.20
2009,06,04,14,58,21.20
2009,06,04,14,59,21.20
2009,06,04,15,00,21.20
2009,06,04,15,01,21.20
2009,06,04,15,02,21.20
2009,06,04,15,03,21.20
2009,06,04,15,04,21.20
2009,06,04,15,05,21.20
2009,06,04,15,06,21.20
2009,06,04,15,07,21.20
2009,06,04,15,08,21.20
2009,06,04,15,09,21.20
2009,06,04,15,10,20.70
2009,06,04,15,11,20.70
2009,06,04,15,12,20.70
2009,06,04,15,13,20.70
2009,06,04,15,14,20.70
2009,06,04,15,15,20.70
2009,06,04,15,16,20.70
2009,06,04,15,17,20.70
2009,06,04,15,18,20.70
2009,06,04,15,19,20.70
2009,06,04,15,20,20.70
2009,06,04,15,21,20.70
2009,06,04,15,22,20.70
2009,06,04,15,23,20.70
2009,06,04,15,24,20.70
2009,06,04,15,25,20.20
2009,06,04,15,26,20.20
2009,06,04,15,27,20.20
2009,06,04,15,28,20.20
2009,06,04,15,29,20.20
2009,06,04,15,30,20.20
2009,06,04,15,31,20.20
2009,06,04,15,32,20.20
2009,06,04,15,33,20.20
2009,06,04,15,34,20.20
2009,06,04,15,35,20.20
2009,06,04,15,36,20.20
2009,06,04,15,37,20.20
2009,06,04,15,38,20.20
2009,06,04,15,39,20.20
2009,06,04,15,40,20.20
2009,06,04,15,41,20.20
2009,06,04,15,42,20.20
2009,06,04,15,43,20.20
2009,06,04,15,44,20.20
2009,06,04,15,45,20.20
2009,06,04,15,47,20.20
2009,06,04,15,48,20.20
2009,06,04,15,49,20.20
2009,06,04,15,50,20.20
2009,06,04,15,51,20.20
2009,06,04,15,52,20.20
2009,06,04,15,53,20.20
2009,06,04,15,54,20.20
2009,06,04,15,55,20.20
2009,06,04,15,56,20.20
2009,06,04,15,57,20.20
2009,06,04,15,58,20.20
2009,06,04,15,59,20.20
2009,06,04,16,00,20.20
2009,06,04,16,01,20.20
2009,06,04,16,02,20.20
2009,06,04,16,03,20.20
2009,06,04,16,04,20.20
2009,06,04,16,05,20.20
2009,06,04,16,06,20.20
2009,06,04,16,07,20.20
2009,06,04,16,09,20.20
2009,06,04,16,10,20.80
2009,06,04,16,11,20.80
2009,06,04,16,12,20.80
2009,06,04,16,13,20.80
2009,06,04,16,14,20.80
2009,06,04,16,15,20.80
2009,06,04,16,16,20.80
2009,06,04,16,17,20.80
2009,06,04,16,18,20.80
2009,06,04,16,19,20.80
2009,06,04,16,20,20.80
2009,06,04,16,21,20.80
2009,06,04,16,23,20.80
2009,06,04,16,24,20.80
2009,06,04,16,25,20.60
2009,06,04,16,26,20.60
2009,06,04,16,27,20.60
2009,06,04,16,28,20.60
2009,06,04,16,29,20.60
2009,06,04,16,30,20.60
2009,06,04,16,31,20.60
2009,06,04,16,32,20.60
2009,06,04,16,33,20.60
2009,06,04,16,34,20.60
2009,06,04,16,35,20.60
2009,06,04,16,36,20.60
2009,06,04,16,37,20.60
2009,06,04,16,38,20.60
2009,06,04,16,39,20.60
2009,06,04,16,40,20.40
2009,06,04,16,41,20.40
2009,06,04,16,42,20.40
2009,06,04,16,43,20.40
2009,06,04,16,44,20.40
2009,06,04,16,45,20.40
2009,06,04,16,46,20.40
2009,06,04,16,47,20.40
2009,06,04,16,48,20.40
2009,06,04,16,49,20.40
2009,06,04,16,50,20.40
2009,06,04,16,51,20.40
2009,06,04,16,52,20.40
2009,06,04,16,53,20.40
2009,06,04,16,54,20.40
2009,06,04,16,55,20.40
2009,06,04,16,56,20.40
2009,06,04,16,57,20.40
2009,06,04,16,58,20.40
2009,06,04,16,59,20.40
2009,06,04,17,00,20.40
2009,06,04,17,01,20.40
2009,06,04,17,02,20.40
2009,06,04,17,03,20.40
2009,06,04,17,04,20.40
2009,06,04,17,05,20.40
2009,06,04,17,06,20.40
2009,06,04,17,07,20.40
2009,06,04,17,08,20.40
2009,06,04,17,09,20.40
2009,06,04,17,10,20.80
2009,06,04,17,11,20.80
2009,06,04,17,12,20.80
2009,06,04,17,13,20.80
2009,06,04,17,14,20.80
2009,06,04,17,15,20.80
2009,06,04,17,16,20.80
2009,06,04,17,17,20.80
2009,06,04,17,19,20.80
2009,06,04,17,20,20.80
2009,06,04,17,21,20.80
2009,06,04,17,22,20.80
2009,06,04,17,23,20.80
2009,06,04,17,24,20.80
2009,06,04,17,25,22.30
2009,06,04,17,26,22.30
2009,06,04,17,27,22.30
2009,06,04,17,28,22.30
2009,06,04,17,29,22.30
2009,06,04,17,30,22.30
2009,06,04,17,31,22.30
2009,06,04,17,32,22.30
2009,06,04,17,33,22.30
2009,06,04,17,34,22.30
2009,06,04,17,35,22.30
2009,06,04,17,36,22.30
2009,06,04,17,37,22.30
2009,06,04,17,38,22.30
2009,06,04,17,39,22.30
2009,06,04,17,40,22.30
2009,06,04,17,41,22.30
2009,06,04,17,42,22.30
2009,06,04,17,43,22.30
2009,06,04,17,44,22.30
2009,06,04,17,45,22.30